Location: Newark
(34.1333°N, 7.9667°W)
Time: 19:04:38
(UTC+00:00)

Tiros 1 despin weight - Visible Passes

Search period start: 18 June 2021 00:00
Search period end: 28 June 2021 00:00
Orbit: 593 x 641 km, 48.2° (Epoch: 18 June)

Date Brightness Start Highest point End Pass type
(mag) Time Alt. Az. Time Alt. Az. Time Alt. Az.
20 Jun ? 03:57:53 10° S 04:00:40 16° SE 04:03:27 10° E visible
21 Jun ? 04:13:17 13° SSW 04:16:42 35° SE 04:20:44 10° ENE visible
22 Jun ? 04:28:57 13° SW 04:32:53 77° SE 04:37:17 10° NE visible
23 Jun ? 03:07:30 22° SE 03:07:56 23° SE 03:11:23 10° E visible
23 Jun ? 04:44:51 10° WSW 04:49:11 54° NW 04:53:31 10° NE visible
24 Jun ? 03:23:02 40° S 03:24:01 48° SE 03:28:17 10° ENE visible
25 Jun ? 02:01:28 10° E 02:01:28 10° E 02:01:34 10° E visible
25 Jun ? 03:38:30 36° WSW 03:40:14 81° NW 03:44:41 10° NE visible
26 Jun ? 02:16:53 23° E 02:16:53 23° E 02:19:06 10° ENE visible
26 Jun ? 03:53:54 20° W 03:56:37 42° NNW 04:00:49 10° NE visible
27 Jun ? 02:32:14 51° E 02:32:14 51° E 02:35:44 10° ENE visible
27 Jun ? 04:09:24 10° W 04:13:08 26° NNW 04:16:51 10° NNE visible
